Location: Houston
(29.7630°N, 95.3630°W)
Time: 08:13:51
(UTC-05:00)

Saudisat 1A - Visible Passes

Search period start: 27 March 2015 00:00
Search period end: 06 April 2015 00:00
Orbit: 584 x 616 km, 64.6° (Epoch: 27 March)

Date Brightness Start Highest point End Pass type
(mag) Time Alt. Az. Time Alt. Az. Time Alt. Az.
30 Mar 10.6 21:58:58 10° N 21:59:38 13° N 21:59:38 13° N visible
31 Mar 10.4 22:09:43 10° NNW 22:10:55 18° NNW 22:10:55 18° NNW visible
01 Apr 10.4 22:20:51 10° NNW 22:22:17 20° NW 22:22:17 20° NW visible
02 Apr 9.6 20:53:41 10° N 20:56:48 19° NE 20:56:57 19° NE visible
02 Apr 10.7 22:32:23 10° NW 22:33:43 18° WNW 22:33:43 18° WNW visible
03 Apr 8.7 21:04:07 10° N 21:08:13 35° ENE 21:08:28 35° ENE visible
03 Apr 11.1 22:44:36 10° WNW 22:45:14 12° WNW 22:45:14 12° WNW visible
04 Apr 7.9 21:15:01 10° NNW 21:19:29 73° ENE 21:20:04 62° ESE visible
05 Apr 8.6 21:26:16 10° NW 21:30:37 53° WSW 21:31:47 41° SSW visible
